| time (UTC) | temp C | wind direction | speed KPH | gust KPH | rain 1hr cm | rain 24hr cm | rain mn cm | humidity % | barometer mb |
| 20260507170002 | 13 | 230 | 4.8 | 9.7 | 0.00 | 0.00 | 0.00 | 44 | 1015.5 |
| 20260507165502 | 14 | 254 | 6.4 | 11.3 | 0.00 | 0.00 | 0.00 | 45 | 1015.7 |
| 20260507165002 | 15 | 260 | 4.8 | 14.5 | 0.00 | 0.00 | 0.00 | 43 | 1015.8 |
| 20260507164502 | 14 | 257 | 3.2 | 8.0 | 0.00 | 0.00 | 0.00 | 50 | 1015.9 |
| 20260507164003 | 14 | 257 | 6.4 | 11.3 | 0.00 | 0.00 | 0.00 | 48 | 1015.8 |
| 20260507163502 | 13 | 290 | 4.8 | 16.1 | 0.00 | 0.00 | 0.00 | 47 | 1016.0 |
| 20260507163003 | 13 | 296 | 11.3 | 14.5 | 0.00 | 0.00 | 0.00 | 45 | 1016.0 |
| 20260507162502 | 13 | 254 | 6.4 | 11.3 | 0.00 | 0.00 | 0.00 | 47 | 1016.2 |
| 20260507162002 | 13 | 268 | 4.8 | 8.0 | 0.00 | 0.00 | 0.00 | 45 | 1016.2 |
| 20260507161502 | 13 | 221 | 8.0 | 17.7 | 0.00 | 0.00 | 0.00 | 50 | 1016.4 |
| 20260507161001 | 13 | 283 | 6.4 | 8.0 | 0.00 | 0.00 | 0.00 | 47 | 1016.2 |
| 20260507160502 | 13 | 196 | 4.8 | 11.3 | 0.00 | 0.00 | 0.00 | 49 | 1016.2 |
| 20260507160002 | 13 | 247 | 6.4 | 16.1 | 0.00 | 0.00 | 0.00 | 49 | 1016.5 |
| 20260507155502 | 12 | 208 | 6.4 | 11.3 | 0.00 | 0.00 | 0.00 | 49 | 1016.6 |
| 20260507155003 | 13 | 252 | 6.4 | 9.7 | 0.00 | 0.00 | 0.00 | 49 | 1016.6 |
| 20260507154502 | 13 | 275 | 6.4 | 9.7 | 0.00 | 0.00 | 0.00 | 48 | 1016.6 |
| 20260507154002 | 12 | 254 | 6.4 | 8.0 | 0.00 | 0.00 | 0.00 | 48 | 1016.6 |
| 20260507153502 | 12 | 286 | 1.6 | 6.4 | 0.00 | 0.00 | 0.00 | 52 | 1016.8 |
| 20260507153002 | 12 | 188 | 4.8 | 9.7 | 0.00 | 0.00 | 0.00 | 54 | 1016.5 |
| 20260507152502 | 12 | 275 | 4.8 | 9.7 | 0.00 | 0.00 | 0.00 | 47 | 1016.7 |
| 20260507152002 | 12 | 267 | 6.4 | 9.7 | 0.00 | 0.00 | 0.00 | 47 | 1016.9 |
| 20260507151502 | 12 | 227 | 4.8 | 8.0 | 0.00 | 0.00 | 0.00 | 51 | 1016.8 |
| 20260507151002 | 12 | 197 | 6.4 | 8.0 | 0.00 | 0.00 | 0.00 | 50 | 1016.8 |
| 20260507150501 | 11 | 284 | 1.6 | 6.4 | 0.00 | 0.00 | 0.00 | 48 | 1017.0 |
| 20260507150002 | 12 | 247 | 6.4 | 11.3 | 0.00 | 0.00 | 0.00 | 48 | 1017.2 |
| 20260507145502 | 11 | 276 | 4.8 | 6.4 | 0.00 | 0.00 | 0.00 | 50 | 1017.2 |
| 20260507145002 | 11 | 253 | 4.8 | 9.7 | 0.00 | 0.00 | 0.00 | 49 | 1016.9 |
| 20260507144502 | 11 | 291 | 4.8 | 8.0 | 0.00 | 0.00 | 0.00 | 53 | 1017.3 |
| 20260507144002 | 11 | 258 | 6.4 | 11.3 | 0.00 | 0.00 | 0.00 | 51 | 1017.2 |
| 20260507143502 | 11 | 282 | 3.2 | 8.0 | 0.00 | 0.00 | 0.00 | 55 | 1017.2 |
| 20260507143002 | 11 | 258 | 6.4 | 6.4 | 0.00 | 0.00 | 0.00 | 53 | 1017.3 |
| 20260507142502 | 11 | 240 | 3.2 | 8.0 | 0.00 | 0.00 | 0.00 | 53 | 1017.1 |
| 20260507142001 | 11 | 233 | 6.4 | 8.0 | 0.00 | 0.00 | 0.00 | 53 | 1017.2 |
| 20260507141502 | 10 | 258 | 3.2 | 6.4 | 0.00 | 0.00 | 0.00 | 53 | 1017.1 |
| 20260507141002 | 10 | 271 | 3.2 | 6.4 | 0.00 | 0.00 | 0.00 | 56 | 1017.4 |
| 20260507140502 | 10 | 204 | 4.8 | 8.0 | 0.00 | 0.00 | 0.00 | 57 | 1017.3 |
| 20260507135502 | 10 | 314 | 6.4 | 8.0 | 0.00 | 0.00 | 0.00 | 57 | 1017.5 |
| 20260507135002 | 10 | 297 | 3.2 | 11.3 | 0.00 | 0.00 | 0.00 | 58 | 1017.8 |
| 20260507134502 | 9 | 284 | 4.8 | 8.0 | 0.00 | 0.00 | 0.00 | 57 | 1017.6 |
| 20260507134001 | 9 | 287 | 4.8 | 8.0 | 0.00 | 0.00 | 0.00 | 59 | 1017.7 |
| 20260507133502 | 9 | 261 | 8.0 | 8.0 | 0.00 | 0.00 | 0.00 | 58 | 1017.6 |
| 20260507133002 | 8 | 291 | 3.2 | 4.8 | 0.00 | 0.00 | 0.00 | 61 | 1017.6 |
| 20260507132502 | 8 | 282 | 6.4 | 8.0 | 0.00 | 0.00 | 0.00 | 59 | 1017.6 |
| 20260507132002 | 8 | 280 | 3.2 | 3.2 | 0.00 | 0.00 | 0.00 | 62 | 1017.6 |
| 20260507131502 | 8 | 279 | 1.6 | 4.8 | 0.00 | 0.00 | 0.00 | 62 | 1017.7 |
| 20260507131002 | 8 | 272 | 3.2 | 6.4 | 0.00 | 0.00 | 0.00 | 59 | 1017.6 |
| 20260507130502 | 7 | 272 | 3.2 | 6.4 | 0.00 | 0.00 | 0.00 | 62 | 1017.6 |
| 20260507130001 | 7 | 269 | 3.2 | 6.4 | 0.00 | 0.00 | 0.00 | 63 | 1017.2 |
| 20260507125502 | 7 | 223 | 3.2 | 4.8 | 0.00 | 0.00 | 0.00 | 64 | 1017.3 |
| 20260507125002 | 7 | 285 | 1.6 | 4.8 | 0.00 | 0.00 | 0.00 | 66 | 1017.3 |
| 20260507124501 | 7 | 275 | 3.2 | 4.8 | 0.00 | 0.00 | 0.00 | 69 | 1017.3 |
| 20260507124002 | 6 | 289 | 1.6 | 4.8 | 0.00 | 0.00 | 0.00 | 69 | 1017.3 |
| 20260507123502 | 6 | 272 | 3.2 | 4.8 | 0.00 | 0.00 | 0.00 | 71 | 1017.4 |
| 20260507123002 | 5 | 279 | 3.2 | 4.8 | 0.00 | 0.00 | 0.00 | 71 | 1017.3 |
| 20260507122502 | 5 | 282 | 3.2 | 4.8 | 0.00 | 0.00 | 0.00 | 73 | 1017.5 |
| 20260507122002 | 5 | 249 | 3.2 | 4.8 | 0.00 | 0.00 | 0.00 | 75 | 1017.2 |
| 20260507121502 | 5 | 258 | 3.2 | 3.2 | 0.00 | 0.00 | 0.00 | 77 | 1017.3 |
| 20260507121002 | 4 | 266 | 3.2 | 4.8 | 0.00 | 0.00 | 0.00 | 81 | 1017.2 |
| 20260507120501 | 3 | 281 | 1.6 | 3.2 | 0.00 | 0.00 | 0.00 | 86 | 1017.5 |
| 20260507120002 | 3 | 285 | 0.0 | 0.0 | 0.00 | 0.00 | 0.00 | 89 | 1017.2 |
| 20260507115502 | 2 | 285 | 0.0 | 3.2 | 0.00 | 0.00 | 0.00 | 90 | 1017.4 |
| 20260507115002 | 2 | 285 | 0.0 | 0.0 | 0.00 | 0.00 | 0.00 | 92 | 1017.3 |
| 20260507114502 | 1 | 290 | 0.0 | 0.0 | 0.00 | 0.00 | 0.00 | 96 | 1017.1 |
| 20260507114002 | 1 | 292 | 0.0 | 0.0 | 0.00 | 0.00 | 0.00 | 98 | 1017.1 |
| 20260507113502 | 0 | 292 | 0.0 | 0.0 | 0.00 | 0.00 | 0.00 | 98 | 1017.1 |
| 20260507113002 | 0 | 292 | 0.0 | 0.0 | 0.00 | 0.00 | 0.00 | 99 | 1016.8 |
| 20260507112502 | 0 | 299 | 0.0 | 0.0 | 0.00 | 0.00 | 0.00 | 99 | 1017.0 |
| 20260507112002 | 0 | 287 | 0.0 | 0.0 | 0.00 | 0.00 | 0.00 | 99 | 1017.1 |
| 20260507111503 | 0 | 286 | 0.0 | 0.0 | 0.00 | 0.00 | 0.00 | 98 | 1016.7 |
| 20260507111002 | 0 | 286 | 0.0 | 0.0 | 0.00 | 0.00 | 0.00 | 98 | 1017.1 |
| 20260507110502 | 0 | 286 | 0.0 | 0.0 | 0.00 | 0.00 | 0.00 | 98 | 1017.0 |
| 20260507110002 | 0 | 286 | 0.0 | 0.0 | 0.00 | 0.00 | 0.00 | 98 | 1016.9 |
| 20260507105502 | 0 | 286 | 0.0 | 0.0 | 0.00 | 0.00 | 0.00 | 98 | 1016.9 |
| 20260507105002 | 0 | 286 | 0.0 | 0.0 | 0.00 | 0.00 | 0.00 | 97 | 1017.2 |
| 20260507104501 | 0 | 286 | 0.0 | 0.0 | 0.00 | 0.00 | 0.00 | 97 | 1017.1 |
| 20260507104002 | 0 | 286 | 0.0 | 0.0 | 0.00 | 0.00 | 0.00 | 97 | 1017.1 |
| 20260507103502 | 0 | 286 | 0.0 | 0.0 | 0.00 | 0.00 | 0.00 | 97 | 1017.3 |
| 20260507103002 | 0 | 286 | 0.0 | 0.0 | 0.00 | 0.00 | 0.00 | 97 | 1017.3 |
| 20260507102502 | 0 | 286 | 0.0 | 0.0 | 0.00 | 0.00 | 0.00 | 97 | 1017.2 |
| 20260507102001 | 0 | 286 | 0.0 | 0.0 | 0.00 | 0.00 | 0.00 | 97 | 1017.1 |
| 20260507101502 | 0 | 286 | 0.0 | 0.0 | 0.00 | 0.00 | 0.00 | 98 | 1017.2 |
| 20260507101002 | 0 | 286 | 0.0 | 0.0 | 0.00 | 0.00 | 0.00 | 97 | 1017.2 |
| 20260507100501 | 0 | 286 | 0.0 | 0.0 | 0.00 | 0.00 | 0.00 | 97 | 1017.4 |
| 20260507100002 | 0 | 286 | 0.0 | 0.0 | 0.00 | 0.00 | 0.00 | 97 | 1017.1 |
| 20260507095502 | 0 | 286 | 0.0 | 0.0 | 0.00 | 0.00 | 0.00 | 97 | 1017.3 |
| 20260507095002 | 0 | 286 | 0.0 | 0.0 | 0.00 | 0.00 | 0.00 | 98 | 1017.3 |
| 20260507094502 | 0 | 286 | 0.0 | 0.0 | 0.00 | 0.00 | 0.00 | 98 | 1017.5 |
| 20260507094002 | 0 | 286 | 0.0 | 0.0 | 0.00 | 0.00 | 0.00 | 98 | 1017.3 |
| 20260507093502 | 0 | 286 | 0.0 | 0.0 | 0.00 | 0.00 | 0.00 | 98 | 1017.5 |
| 20260507093002 | 0 | 286 | 0.0 | 0.0 | 0.00 | 0.00 | 0.00 | 98 | 1017.2 |
| 20260507092502 | 0 | 286 | 0.0 | 0.0 | 0.00 | 0.00 | 0.00 | 98 | 1017.3 |
| 20260507092002 | 0 | 286 | 0.0 | 3.2 | 0.00 | 0.00 | 0.00 | 98 | 1017.5 |
| 20260507091502 | 0 | 287 | 0.0 | 0.0 | 0.00 | 0.00 | 0.00 | 97 | 1017.5 |
| 20260507091002 | 0 | 287 | 0.0 | 0.0 | 0.00 | 0.00 | 0.00 | 97 | 1017.4 |
| 20260507090502 | 0 | 287 | 0.0 | 0.0 | 0.00 | 0.00 | 0.00 | 98 | 1017.4 |
| 20260507090002 | 0 | 287 | 0.0 | 0.0 | 0.00 | 0.00 | 0.00 | 97 | 1017.3 |
| 20260507085502 | 0 | 287 | 0.0 | 0.0 | 0.00 | 0.00 | 0.00 | 97 | 1016.9 |
| 20260507085002 | 0 | 287 | 0.0 | 0.0 | 0.00 | 0.00 | 0.00 | 97 | 1017.2 |
| 20260507084502 | 0 | 287 | 0.0 | 0.0 | 0.00 | 0.00 | 0.00 | 97 | 1017.3 |
| 20260507084001 | 0 | 287 | 0.0 | 0.0 | 0.00 | 0.00 | 0.00 | 97 | 1017.4 |
| 20260507083502 | 0 | 287 | 0.0 | 0.0 | 0.00 | 0.00 | 0.00 | 97 | 1017.5 |
| 20260507083002 | 0 | 287 | 0.0 | 0.0 | 0.00 | 0.00 | 0.00 | 97 | 1017.2 |
| 20260507082502 | 0 | 287 | 0.0 | 0.0 | 0.00 | 0.00 | 0.00 | 97 | 1017.6 |
| 20260507082002 | 0 | 287 | 0.0 | 0.0 | 0.00 | 0.00 | 0.00 | 96 | 1017.4 |
| 20260507081502 | 0 | 287 | 0.0 | 0.0 | 0.00 | 0.00 | 0.00 | 96 | 1017.5 |
| 20260507081002 | 0 | 287 | 0.0 | 0.0 | 0.00 | 0.00 | 0.00 | 96 | 1017.3 |
| 20260507080501 | 0 | 287 | 0.0 | 0.0 | 0.00 | 0.00 | 0.00 | 96 | 1017.4 |
| 20260507080003 | 1 | 286 | 0.0 | 0.0 | 0.00 | 0.00 | 0.00 | 96 | 1017.4 |
| 20260507075501 | 1 | 286 | 0.0 | 0.0 | 0.00 | 0.00 | 0.00 | 96 | 1017.3 |
| 20260507075002 | 1 | 286 | 0.0 | 0.0 | 0.00 | 0.00 | 0.00 | 97 | 1017.3 |
| 20260507074502 | 1 | 287 | 0.0 | 0.0 | 0.00 | 0.00 | 0.00 | 97 | 1017.1 |
| 20260507074002 | 1 | 286 | 0.0 | 0.0 | 0.00 | 0.00 | 0.00 | 97 | 1017.3 |
| 20260507073502 | 1 | 286 | 0.0 | 0.0 | 0.00 | 0.00 | 0.00 | 97 | 1017.2 |
| 20260507073002 | 0 | 287 | 0.0 | 0.0 | 0.00 | 0.00 | 0.00 | 96 | 1017.2 |
| 20260507072502 | 1 | 287 | 0.0 | 0.0 | 0.00 | 0.00 | 0.00 | 96 | 1017.4 |
| 20260507072002 | 0 | 287 | 0.0 | 0.0 | 0.00 | 0.00 | 0.00 | 96 | 1017.3 |
| 20260507071503 | 0 | 287 | 0.0 | 0.0 | 0.00 | 0.00 | 0.00 | 95 | 1017.3 |
| 20260507071002 | 0 | 287 | 0.0 | 0.0 | 0.00 | 0.00 | 0.00 | 95 | 1017.3 |
| 20260507070501 | 0 | 287 | 0.0 | 0.0 | 0.00 | 0.00 | 0.00 | 95 | 1017.5 |
| 20260507070005 | 0 | 287 | 0.0 | 0.0 | 0.00 | 0.00 | 0.00 | 95 | 1017.3 |
| 20260507065502 | 0 | 287 | 0.0 | 0.0 | 0.00 | 0.00 | 0.00 | 94 | 1017.4 |
| 20260507065002 | 1 | 287 | 0.0 | 0.0 | 0.00 | 0.00 | 0.00 | 94 | 1017.4 |
| 20260507064502 | 1 | 287 | 0.0 | 0.0 | 0.00 | 0.00 | 0.00 | 95 | 1017.6 |
| 20260507064002 | 0 | 287 | 0.0 | 0.0 | 0.00 | 0.00 | 0.00 | 95 | 1017.6 |
| 20260507063502 | 0 | 287 | 0.0 | 0.0 | 0.00 | 0.00 | 0.00 | 94 | 1017.3 |
| 20260507063002 | 0 | 287 | 0.0 | 0.0 | 0.00 | 0.00 | 0.00 | 93 | 1017.3 |
| 20260507062502 | 0 | 287 | 0.0 | 0.0 | 0.00 | 0.00 | 0.00 | 93 | 1017.4 |
| 20260507062002 | 0 | 287 | 0.0 | 0.0 | 0.00 | 0.00 | 0.00 | 92 | 1017.5 |
| 20260507061502 | 0 | 287 | 0.0 | 0.0 | 0.00 | 0.00 | 0.00 | 91 | 1017.7 |
| 20260507061001 | 1 | 287 | 0.0 | 0.0 | 0.00 | 0.00 | 0.00 | 90 | 1017.5 |
| 20260507060502 | 0 | 287 | 0.0 | 0.0 | 0.00 | 0.00 | 0.00 | 88 | 1017.6 |
| 20260507060002 | 0 | 287 | 0.0 | 0.0 | 0.00 | 0.00 | 0.00 | 87 | 1017.8 |
| 20260507055502 | 1 | 287 | 0.0 | 0.0 | 0.00 | 0.00 | 0.00 | 87 | 1017.5 |
| 20260507055002 | 1 | 287 | 0.0 | 0.0 | 0.00 | 0.00 | 0.00 | 86 | 1017.8 |
| 20260507054502 | 1 | 287 | 0.0 | 0.0 | 0.00 | 0.00 | 0.00 | 85 | 1017.6 |
| 20260507054002 | 1 | 287 | 0.0 | 0.0 | 0.00 | 0.00 | 0.00 | 86 | 1017.6 |
| 20260507053502 | 1 | 287 | 0.0 | 0.0 | 0.00 | 0.00 | 0.00 | 85 | 1017.8 |
| 20260507053002 | 1 | 287 | 0.0 | 0.0 | 0.00 | 0.00 | 0.00 | 85 | 1017.7 |
| 20260507052502 | 1 | 287 | 0.0 | 0.0 | 0.00 | 0.00 | 0.00 | 84 | 1017.9 |
| 20260507052002 | 1 | 287 | 0.0 | 0.0 | 0.00 | 0.00 | 0.00 | 83 | 1017.8 |
| 20260507051502 | 1 | 287 | 0.0 | 0.0 | 0.00 | 0.00 | 0.00 | 82 | 1017.8 |
| 20260507051002 | 2 | 287 | 0.0 | 0.0 | 0.00 | 0.00 | 0.00 | 82 | 1017.7 |
| 20260507050502 | 1 | 287 | 0.0 | 0.0 | 0.00 | 0.00 | 0.00 | 83 | 1017.5 |
| 20260507050002 | 1 | 287 | 0.0 | 0.0 | 0.00 | 0.00 | 0.00 | 84 | 1017.5 |
| 20260507045502 | 1 | 287 | 0.0 | 0.0 | 0.00 | 0.00 | 0.00 | 85 | 1017.7 |
| 20260507045001 | 1 | 287 | 0.0 | 0.0 | 0.00 | 0.00 | 0.00 | 85 | 1017.7 |
| 20260507044502 | 1 | 287 | 0.0 | 0.0 | 0.00 | 0.00 | 0.00 | 84 | 1017.6 |
| 20260507044002 | 1 | 287 | 0.0 | 0.0 | 0.00 | 0.00 | 0.00 | 84 | 1017.7 |
| 20260507043502 | 1 | 287 | 0.0 | 0.0 | 0.00 | 0.00 | 0.00 | 84 | 1017.6 |
| 20260507043001 | 1 | 287 | 0.0 | 0.0 | 0.00 | 0.00 | 0.00 | 83 | 1017.6 |
| 20260507042502 | 1 | 287 | 0.0 | 0.0 | 0.00 | 0.00 | 0.00 | 83 | 1017.6 |
| 20260507042002 | 1 | 287 | 0.0 | 0.0 | 0.00 | 0.00 | 0.00 | 82 | 1017.7 |
| 20260507041502 | 1 | 287 | 0.0 | 0.0 | 0.00 | 0.00 | 0.00 | 82 | 1017.6 |
| 20260507041001 | 2 | 287 | 0.0 | 0.0 | 0.00 | 0.00 | 0.00 | 81 | 1017.5 |
| 20260507040502 | 2 | 287 | 0.0 | 0.0 | 0.00 | 0.00 | 0.00 | 80 | 1017.6 |
| 20260507040002 | 2 | 287 | 0.0 | 0.0 | 0.00 | 0.00 | 0.00 | 78 | 1017.5 |
| 20260507035502 | 2 | 287 | 0.0 | 0.0 | 0.00 | 0.00 | 0.00 | 76 | 1017.7 |
| 20260507035002 | 2 | 286 | 0.0 | 0.0 | 0.00 | 0.00 | 0.00 | 74 | 1017.6 |
| 20260507034502 | 3 | 286 | 0.0 | 0.0 | 0.00 | 0.00 | 0.00 | 72 | 1017.5 |
| 20260507034002 | 3 | 286 | 0.0 | 0.0 | 0.00 | 0.00 | 0.00 | 71 | 1017.7 |
| 20260507033502 | 4 | 286 | 0.0 | 0.0 | 0.00 | 0.00 | 0.00 | 69 | 1017.8 |
| 20260507033002 | 4 | 286 | 0.0 | 0.0 | 0.00 | 0.00 | 0.00 | 68 | 1017.7 |
| 20260507032501 | 5 | 285 | 0.0 | 0.0 | 0.00 | 0.00 | 0.00 | 66 | 1017.6 |
| 20260507032002 | 5 | 286 | 0.0 | 0.0 | 0.00 | 0.00 | 0.00 | 66 | 1017.6 |
| 20260507031502 | 5 | 286 | 0.0 | 3.2 | 0.00 | 0.00 | 0.00 | 64 | 1017.5 |
| 20260507031002 | 5 | 292 | 1.6 | 3.2 | 0.00 | 0.00 | 0.00 | 64 | 1017.6 |
| 20260507030502 | 5 | 294 | 0.0 | 0.0 | 0.00 | 0.00 | 0.00 | 64 | 1017.5 |
| 20260507030002 | 5 | 295 | 0.0 | 0.0 | 0.00 | 0.00 | 0.00 | 63 | 1017.6 |
| 20260507025502 | 5 | 295 | 0.0 | 0.0 | 0.00 | 0.00 | 0.00 | 62 | 1017.5 |
| 20260507025002 | 6 | 293 | 0.0 | 0.0 | 0.00 | 0.00 | 0.00 | 61 | 1017.6 |
| 20260507024502 | 6 | 294 | 0.0 | 0.0 | 0.00 | 0.00 | 0.00 | 59 | 1017.3 |
| 20260507024002 | 6 | 295 | 0.0 | 3.2 | 0.00 | 0.00 | 0.00 | 58 | 1017.2 |
| 20260507023502 | 7 | 296 | 0.0 | 3.2 | 0.00 | 0.00 | 0.00 | 57 | 1017.5 |
| 20260507023003 | 7 | 295 | 1.6 | 3.2 | 0.00 | 0.00 | 0.00 | 56 | 1017.5 |
| 20260507022502 | 7 | 301 | 1.6 | 3.2 | 0.00 | 0.00 | 0.00 | 56 | 1017.2 |
| 20260507022002 | 7 | 291 | 1.6 | 3.2 | 0.00 | 0.00 | 0.00 | 55 | 1017.0 |
| 20260507021502 | 7 | 300 | 3.2 | 6.4 | 0.00 | 0.00 | 0.00 | 53 | 1017.3 |
| 20260507021002 | 8 | 308 | 3.2 | 4.8 | 0.00 | 0.00 | 0.00 | 52 | 1017.0 |
| 20260507020501 | 8 | 298 | 6.4 | 9.7 | 0.00 | 0.00 | 0.00 | 52 | 1017.0 |
| 20260507020002 | 8 | 300 | 4.8 | 16.1 | 0.00 | 0.00 | 0.00 | 51 | 1016.8 |
| 20260507015502 | 8 | 344 | 8.0 | 14.5 | 0.00 | 0.00 | 0.00 | 51 | 1016.8 |
| 20260507015002 | 8 | 323 | 6.4 | 8.0 | 0.00 | 0.00 | 0.00 | 52 | 1016.7 |
| 20260507014502 | 8 | 292 | 3.2 | 11.3 | 0.00 | 0.00 | 0.00 | 51 | 1016.6 |
| 20260507014003 | 8 | 298 | 4.8 | 8.0 | 0.00 | 0.00 | 0.00 | 53 | 1016.7 |
| 20260507013502 | 8 | 295 | 3.2 | 4.8 | 0.00 | 0.00 | 0.00 | 53 | 1016.5 |
| 20260507013002 | 8 | 318 | 4.8 | 6.4 | 0.00 | 0.00 | 0.00 | 51 | 1016.4 |
| 20260507012502 | 8 | 357 | 4.8 | 14.5 | 0.00 | 0.00 | 0.00 | 51 | 1016.4 |
| 20260507012002 | 9 | 307 | 1.6 | 6.4 | 0.00 | 0.00 | 0.00 | 51 | 1016.3 |
| 20260507011502 | 9 | 295 | 4.8 | 14.5 | 0.00 | 0.00 | 0.00 | 50 | 1016.5 |
| 20260507011002 | 9 | 273 | 3.2 | 8.0 | 0.00 | 0.00 | 0.00 | 49 | 1016.5 |
| 20260507010502 | 9 | 302 | 6.4 | 9.7 | 0.00 | 0.00 | 0.00 | 50 | 1016.4 |
| 20260507010002 | 9 | 300 | 6.4 | 14.5 | 0.00 | 0.00 | 0.00 | 50 | 1016.3 |
| 20260507005502 | 10 | 2 | 3.2 | 9.7 | 0.00 | 0.00 | 0.00 | 50 | 1016.3 |
| 20260507005001 | 10 | 295 | 4.8 | 16.1 | 0.00 | 0.00 | 0.00 | 48 | 1016.3 |
| 20260507004502 | 10 | 319 | 9.7 | 16.1 | 0.00 | 0.00 | 0.00 | 47 | 1016.2 |
| 20260507004002 | 10 | 289 | 4.8 | 11.3 | 0.00 | 0.00 | 0.00 | 48 | 1016.3 |
| 20260507003502 | 10 | 328 | 8.0 | 11.3 | 0.00 | 0.00 | 0.00 | 47 | 1016.3 |
| 20260507003002 | 10 | 338 | 11.3 | 14.5 | 0.00 | 0.00 | 0.00 | 47 | 1016.4 |
| 20260507002501 | 11 | 337 | 6.4 | 11.3 | 0.00 | 0.00 | 0.00 | 47 | 1016.2 |
| 20260507002002 | 11 | 312 | 16.1 | 19.3 | 0.00 | 0.00 | 0.00 | 45 | 1016.1 |
| 20260507001502 | 11 | 289 | 9.7 | 17.7 | 0.00 | 0.00 | 0.00 | 45 | 1015.8 |
| 20260507001002 | 11 | 299 | 6.4 | 17.7 | 0.00 | 0.00 | 0.00 | 44 | 1015.9 |
| 20260507000502 | 11 | 259 | 4.8 | 9.7 | 0.00 | 0.00 | 0.00 | 44 | 1016.1 |
| 20260507000003 | 11 | 333 | 4.8 | 25.7 | 0.00 | 0.00 | 0.00 | 45 | 1016.1 |
| 20260506235502 | 11 | 297 | 4.8 | 14.5 | 0.00 | 0.00 | 0.00 | 46 | 1015.8 |
| 20260506235002 | 11 | 287 | 6.4 | 14.5 | 0.00 | 0.00 | 0.00 | 46 | 1015.7 |
| 20260506234502 | 11 | 268 | 9.7 | 17.7 | 0.00 | 0.00 | 0.00 | 45 | 1016.0 |
| 20260506234002 | 12 | 317 | 9.7 | 14.5 | 0.00 | 0.00 | 0.00 | 46 | 1015.5 |
| 20260506233502 | 12 | 322 | 6.4 | 11.3 | 0.00 | 0.00 | 0.00 | 44 | 1015.6 |
| 20260506233002 | 12 | 272 | 6.4 | 11.3 | 0.00 | 0.00 | 0.00 | 44 | 1015.5 |
| 20260506232502 | 12 | 313 | 6.4 | 8.0 | 0.00 | 0.00 | 0.00 | 44 | 1015.6 |
| 20260506232002 | 12 | 305 | 3.2 | 11.3 | 0.00 | 0.00 | 0.00 | 44 | 1015.6 |
| 20260506231502 | 12 | 309 | 11.3 | 20.9 | 0.00 | 0.00 | 0.00 | 42 | 1015.7 |
| 20260506231002 | 12 | 315 | 8.0 | 17.7 | 0.00 | 0.00 | 0.00 | 43 | 1015.5 |
| 20260506230502 | 12 | 30 | 11.3 | 17.7 | 0.00 | 0.00 | 0.00 | 43 | 1015.4 |
| 20260506230002 | 11 | 275 | 9.7 | 16.1 | 0.00 | 0.00 | 0.00 | 44 | 1015.3 |
| 20260506225502 | 12 | 293 | 6.4 | 14.5 | 0.00 | 0.00 | 0.00 | 44 | 1015.4 |
| 20260506225002 | 12 | 286 | 12.9 | 19.3 | 0.00 | 0.00 | 0.00 | 44 | 1015.1 |
| 20260506224502 | 13 | 290 | 6.4 | 24.1 | 0.00 | 0.00 | 0.00 | 43 | 1015.3 |
| 20260506224002 | 13 | 282 | 12.9 | 20.9 | 0.00 | 0.00 | 0.00 | 41 | 1015.3 |
| 20260506223502 | 12 | 301 | 8.0 | 17.7 | 0.00 | 0.00 | 0.00 | 43 | 1015.3 |
| 20260506223001 | 12 | 259 | 20.9 | 25.7 | 0.00 | 0.00 | 0.00 | 41 | 1015.3 |
| 20260506222502 | 12 | 287 | 12.9 | 25.7 | 0.00 | 0.00 | 0.00 | 42 | 1015.4 |
| 20260506222002 | 12 | 278 | 12.9 | 20.9 | 0.00 | 0.00 | 0.00 | 42 | 1015.3 |
| 20260506221502 | 12 | 277 | 14.5 | 22.5 | 0.00 | 0.00 | 0.00 | 43 | 1015.2 |
| 20260506221002 | 12 | 262 | 9.7 | 25.7 | 0.00 | 0.00 | 0.00 | 43 | 1015.3 |
| 20260506220502 | 13 | 247 | 22.5 | 29.0 | 0.00 | 0.00 | 0.00 | 41 | 1015.5 |
| 20260506220002 | 13 | 240 | 11.3 | 22.5 | 0.00 | 0.00 | 0.00 | 42 | 1015.2 |
| 20260506215503 | 12 | 280 | 16.1 | 22.5 | 0.00 | 0.00 | 0.00 | 41 | 1015.3 |
| 20260506215001 | 13 | 302 | 14.5 | 25.7 | 0.00 | 0.00 | 0.00 | 41 | 1015.2 |
| 20260506214502 | 12 | 318 | 9.7 | 22.5 | 0.00 | 0.00 | 0.00 | 43 | 1015.0 |
| 20260506214002 | 12 | 312 | 12.9 | 30.6 | 0.00 | 0.00 | 0.00 | 42 | 1015.2 |
| 20260506213502 | 13 | 239 | 22.5 | 30.6 | 0.00 | 0.00 | 0.00 | 41 | 1015.1 |
| 20260506213002 | 13 | 254 | 11.3 | 17.7 | 0.00 | 0.00 | 0.00 | 40 | 1015.1 |
| 20260506212501 | 13 | 231 | 12.9 | 24.1 | 0.00 | 0.00 | 0.00 | 41 | 1015.0 |
| 20260506212003 | 13 | 271 | 12.9 | 19.3 | 0.00 | 0.00 | 0.00 | 38 | 1014.8 |
| 20260506211502 | 13 | 240 | 14.5 | 20.9 | 0.00 | 0.00 | 0.00 | 40 | 1015.1 |
| 20260506211002 | 13 | 304 | 17.7 | 25.7 | 0.00 | 0.00 | 0.00 | 39 | 1014.9 |
| 20260506210502 | 13 | 347 | 9.7 | 14.5 | 0.00 | 0.00 | 0.00 | 42 | 1015.3 |
| 20260506210001 | 13 | 261 | 11.3 | 16.1 | 0.00 | 0.00 | 0.00 | 42 | 1015.2 |
| 20260506205502 | 13 | 294 | 11.3 | 20.9 | 0.00 | 0.00 | 0.00 | 41 | 1015.1 |
| 20260506205002 | 14 | 305 | 6.4 | 16.1 | 0.00 | 0.00 | 0.00 | 41 | 1015.2 |
| 20260506204502 | 14 | 276 | 3.2 | 14.5 | 0.00 | 0.00 | 0.00 | 44 | 1015.3 |
| 20260506204003 | 13 | 291 | 6.4 | 22.5 | 0.00 | 0.00 | 0.00 | 40 | 1015.4 |
| 20260506203502 | 13 | 287 | 6.4 | 19.3 | 0.00 | 0.00 | 0.00 | 42 | 1015.0 |
| 20260506203002 | 13 | 224 | 9.7 | 16.1 | 0.00 | 0.00 | 0.00 | 41 | 1015.5 |
| 20260506202502 | 13 | 229 | 9.7 | 17.7 | 0.00 | 0.00 | 0.00 | 41 | 1015.2 |
| 20260506202002 | 13 | 258 | 11.3 | 17.7 | 0.00 | 0.00 | 0.00 | 44 | 1015.2 |
| 20260506201502 | 13 | 244 | 9.7 | 14.5 | 0.00 | 0.00 | 0.00 | 43 | 1015.6 |
| 20260506201002 | 13 | 273 | 6.4 | 14.5 | 0.00 | 0.00 | 0.00 | 45 | 1015.3 |
| 20260506200502 | 12 | 287 | 8.0 | 17.7 | 0.00 | 0.00 | 0.00 | 45 | 1015.7 |
| 20260506200002 | 13 | 270 | 8.0 | 19.3 | 0.00 | 0.00 | 0.00 | 45 | 1015.8 |
| 20260506195501 | 13 | 261 | 6.4 | 14.5 | 0.00 | 0.00 | 0.00 | 49 | 1015.8 |
| 20260506195002 | 13 | 268 | 8.0 | 16.1 | 0.00 | 0.00 | 0.00 | 47 | 1015.9 |
| 20260506194502 | 13 | 258 | 12.9 | 19.3 | 0.00 | 0.00 | 0.00 | 43 | 1016.0 |
| 20260506194002 | 12 | 245 | 9.7 | 17.7 | 0.00 | 0.00 | 0.00 | 48 | 1015.9 |
| 20260506193502 | 12 | 252 | 8.0 | 20.9 | 0.00 | 0.00 | 0.00 | 48 | 1015.8 |
| 20260506193002 | 12 | 254 | 4.8 | 14.5 | 0.00 | 0.00 | 0.00 | 47 | 1015.8 |
| 20260506192502 | 12 | 287 | 3.2 | 17.7 | 0.00 | 0.00 | 0.00 | 46 | 1016.0 |
| 20260506192001 | 12 | 232 | 16.1 | 20.9 | 0.00 | 0.00 | 0.00 | 46 | 1015.9 |
| 20260506191502 | 12 | 225 | 4.8 | 14.5 | 0.00 | 0.00 | 0.00 | 48 | 1015.9 |
| 20260506191002 | 12 | 234 | 6.4 | 14.5 | 0.00 | 0.00 | 0.00 | 49 | 1016.0 |
| 20260506190502 | 12 | 270 | 11.3 | 17.7 | 0.00 | 0.00 | 0.00 | 48 | 1015.9 |
| 20260506190002 | 12 | 291 | 6.4 | 17.7 | 0.00 | 0.00 | 0.00 | 49 | 1016.0 |
| 20260506185502 | 12 | 242 | 12.9 | 19.3 | 0.00 | 0.00 | 0.00 | 47 | 1016.1 |
| 20260506185003 | 12 | 292 | 6.4 | 14.5 | 0.00 | 0.00 | 0.00 | 47 | 1015.8 |
| 20260506184501 | 12 | 324 | 9.7 | 20.9 | 0.00 | 0.00 | 0.00 | 48 | 1016.0 |
| 20260506184002 | 12 | 298 | 4.8 | 16.1 | 0.00 | 0.00 | 0.00 | 47 | 1015.8 |
| 20260506183503 | 12 | 268 | 8.0 | 19.3 | 0.00 | 0.00 | 0.00 | 47 | 1016.0 |
| 20260506183002 | 12 | 301 | 9.7 | 17.7 | 0.00 | 0.00 | 0.00 | 47 | 1015.7 |
| 20260506182502 | 12 | 307 | 9.7 | 14.5 | 0.00 | 0.00 | 0.00 | 46 | 1015.7 |
| 20260506182002 | 13 | 224 | 9.7 | 16.1 | 0.00 | 0.00 | 0.00 | 49 | 1015.6 |
| 20260506181502 | 12 | 220 | 4.8 | 14.5 | 0.00 | 0.00 | 0.00 | 47 | 1015.8 |
| 20260506181002 | 12 | 249 | 6.4 | 11.3 | 0.00 | 0.00 | 0.00 | 45 | 1015.9 |
| 20260506180502 | 12 | 340 | 8.0 | 17.7 | 0.00 | 0.00 | 0.00 | 45 | 1016.0 |
| 20260506180003 | 12 | 242 | 9.7 | 22.5 | 0.00 | 0.00 | 0.00 | 45 | 1015.9 |
| 20260506175501 | 12 | 297 | 3.2 | 14.5 | 0.00 | 0.00 | 0.00 | 50 | 1016.0 |
| 20260506175003 | 12 | 276 | 9.7 | 16.1 | 0.00 | 0.00 | 0.00 | 46 | 1016.1 |
| 20260506174502 | 12 | 280 | 11.3 | 16.1 | 0.00 | 0.00 | 0.00 | 44 | 1016.2 |
| 20260506174002 | 12 | 222 | 11.3 | 16.1 | 0.00 | 0.00 | 0.00 | 44 | 1016.2 |
| 20260506173502 | 13 | 267 | 6.4 | 20.9 | 0.00 | 0.00 | 0.00 | 46 | 1016.1 |
| 20260506173002 | 13 | 293 | 8.0 | 19.3 | 0.00 | 0.00 | 0.00 | 40 | 1016.3 |
| 20260506172502 | 12 | 307 | 4.8 | 11.3 | 0.00 | 0.00 | 0.00 | 42 | 1016.1 |
| 20260506172002 | 13 | 289 | 6.4 | 16.1 | 0.00 | 0.00 | 0.00 | 44 | 1016.2 |
| 20260506171501 | 12 | 243 | 6.4 | 14.5 | 0.00 | 0.00 | 0.00 | 45 | 1016.3 |
| 20260506171002 | 12 | 338 | 6.4 | 16.1 | 0.00 | 0.00 | 0.00 | 47 | 1016.3 |
| 20260506170502 | 12 | 277 | 9.7 | 11.3 | 0.00 | 0.00 | 0.00 | 43 | 1016.2 |